THM YBTH-YSSY

Flight info

Callsign THM
Flight time 0h 54m
Altitude 7000
Route BTH W575 AKMIR W113 TESAT
Aircraft BE36/L-BDFGLORY/S

Departure

Time 2026-05-08 05:42
Airport Bathurst Airport (YBTH)

Arrival

Time 2026-05-08 06:37
Airport Sydney Kingsford Smith International Airport (YSSY)
Time Latitude Longitude Altitude Speed Heading
2026-05-08 05:13 -33.41381 149.65435 2429 ft 0 kts 354°
2026-05-08 05:39 -33.41351 149.65371 2429 ft 15 kts 279°
2026-05-08 05:39 -33.41338 149.65287 2429 ft 8 kts 278°
2026-05-08 05:40 -33.41293 149.65264 2427 ft 17 kts 352°
2026-05-08 05:40 -33.41113 149.65253 2421 ft 30 kts 356°
2026-05-08 05:40 -33.40905 149.65235 2414 ft 29 kts 351°
2026-05-08 05:40 -33.40725 149.65221 2409 ft 11 kts
2026-05-08 05:41 -33.40700 149.65221 2409 ft 0 kts 359°
2026-05-08 05:41 -33.40682 149.65217 2409 ft 11 kts 327°
2026-05-08 05:41 -33.40658 149.65143 2409 ft 12 kts 303°
2026-05-08 05:42 -33.40683 149.65122 2408 ft 18 kts 177°
2026-05-08 05:42 -33.41037 149.65147 2416 ft 78 kts 178°
2026-05-08 05:42 -33.41631 149.65175 2657 ft 82 kts 191°
2026-05-08 05:42 -33.42162 149.65100 3074 ft 76 kts 192°
2026-05-08 05:43 -33.42670 149.65070 3470 ft 73 kts 190°
2026-05-08 05:43 -33.43166 149.65037 3793 ft 77 kts 188°
2026-05-08 05:43 -33.43683 149.65029 4148 ft 73 kts 190°
2026-05-08 05:43 -33.44208 149.64997 4452 ft 76 kts 190°
2026-05-08 05:44 -33.44789 149.64988 4701 ft 88 kts 191°
2026-05-08 05:44 -33.45424 149.64960 4998 ft 94 kts 189°
2026-05-08 05:44 -33.46093 149.64921 5309 ft 98 kts 189°
2026-05-08 05:44 -33.46781 149.64974 5612 ft 107 kts 164°
2026-05-08 05:45 -33.47386 149.65556 5924 ft 113 kts 151°
2026-05-08 05:45 -33.47970 149.66192 6241 ft 114 kts 149°
2026-05-08 05:45 -33.48530 149.66862 6552 ft 113 kts 148°
2026-05-08 05:45 -33.49073 149.67534 6839 ft 111 kts 147°
2026-05-08 05:46 -33.49621 149.68210 7009 ft 120 kts 148°
2026-05-08 05:46 -33.50262 149.68954 7022 ft 135 kts 148°
2026-05-08 05:46 -33.50971 149.69744 7022 ft 143 kts 148°
2026-05-08 05:46 -33.51612 149.70724 7012 ft 154 kts 135°
2026-05-08 05:47 -33.52300 149.71687 7015 ft 150 kts 150°
2026-05-08 05:47 -33.53181 149.72323 7020 ft 147 kts 161°
2026-05-08 05:47 -33.54097 149.72878 7016 ft 147 kts 162°
2026-05-08 05:47 -33.55014 149.73417 7015 ft 147 kts 163°
2026-05-08 05:48 -33.55935 149.73955 7016 ft 147 kts 163°
2026-05-08 05:48 -33.56856 149.74495 7015 ft 147 kts 162°
2026-05-08 05:48 -33.57779 149.75034 7017 ft 148 kts 162°
2026-05-08 05:48 -33.58703 149.75575 7017 ft 148 kts 162°
2026-05-08 05:49 -33.59624 149.76114 7013 ft 147 kts 162°
2026-05-08 05:49 -33.60536 149.76649 7012 ft 145 kts 162°
2026-05-08 05:49 -33.61442 149.77182 7020 ft 146 kts 162°
2026-05-08 05:49 -33.62345 149.77709 7015 ft 147 kts 162°
2026-05-08 05:50 -33.63272 149.78251 7018 ft 149 kts 162°
2026-05-08 05:50 -33.64216 149.78804 7015 ft 149 kts 162°
2026-05-08 05:50 -33.65138 149.79347 7016 ft 147 kts 162°
2026-05-08 05:50 -33.66053 149.79882 7016 ft 149 kts 162°
2026-05-08 05:51 -33.67004 149.80438 7023 ft 152 kts 162°
2026-05-08 05:51 -33.67951 149.80995 7014 ft 151 kts 162°
2026-05-08 05:51 -33.68879 149.81539 7012 ft 150 kts 162°
2026-05-08 05:51 -33.69816 149.82091 7011 ft 150 kts 162°
2026-05-08 05:52 -33.70754 149.82641 7012 ft 150 kts 162°
2026-05-08 05:52 -33.71693 149.83194 7014 ft 152 kts 162°
2026-05-08 05:52 -33.72643 149.83750 7011 ft 151 kts 162°
2026-05-08 05:52 -33.73581 149.84304 7007 ft 149 kts 162°
2026-05-08 05:53 -33.74511 149.84849 7008 ft 149 kts 162°
2026-05-08 05:53 -33.75442 149.85398 7005 ft 149 kts 162°
2026-05-08 05:53 -33.76377 149.85946 7005 ft 150 kts 162°
2026-05-08 05:53 -33.77319 149.86500 7005 ft 151 kts 162°
2026-05-08 05:54 -33.78256 149.87052 7005 ft 150 kts 162°
2026-05-08 05:54 -33.79192 149.87603 6999 ft 150 kts 162°
2026-05-08 05:54 -33.80127 149.88153 7003 ft 150 kts 162°
2026-05-08 05:54 -33.81059 149.88703 7004 ft 149 kts 162°
2026-05-08 05:55 -33.81992 149.89251 7004 ft 149 kts 162°
2026-05-08 05:55 -33.82926 149.89802 7000 ft 149 kts 162°
2026-05-08 05:55 -33.83856 149.90350 6999 ft 148 kts 162°
2026-05-08 05:55 -33.84776 149.90892 6997 ft 147 kts 162°
2026-05-08 05:56 -33.85702 149.91436 6995 ft 148 kts 162°
2026-05-08 05:56 -33.86628 149.91984 6999 ft 148 kts 162°
2026-05-08 05:56 -33.87557 149.92532 6999 ft 149 kts 162°
2026-05-08 05:56 -33.88492 149.93084 6992 ft 149 kts 162°
2026-05-08 05:57 -33.89422 149.93634 6993 ft 148 kts 162°
2026-05-08 05:57 -33.90350 149.94181 6989 ft 149 kts 162°
2026-05-08 05:57 -33.91274 149.94730 6992 ft 148 kts 161°
2026-05-08 05:57 -33.92200 149.95284 6985 ft 149 kts 162°
2026-05-08 05:58 -33.93124 149.95837 6985 ft 147 kts 162°
2026-05-08 05:58 -33.94052 149.96391 6982 ft 150 kts 162°
2026-05-08 05:58 -33.94979 149.96950 6982 ft 146 kts 162°
2026-05-08 05:58 -33.95890 149.97495 6985 ft 144 kts 162°
2026-05-08 05:59 -33.96785 149.98031 6980 ft 145 kts 162°
2026-05-08 05:59 -33.97701 149.98572 6968 ft 149 kts 162°
2026-05-08 05:59 -33.98629 149.99127 6987 ft 151 kts 161°
2026-05-08 05:59 -33.99581 149.99695 6978 ft 153 kts 161°
2026-05-08 06:00 -34.00524 150.00266 6984 ft 152 kts 161°
2026-05-08 06:00 -34.01480 150.00841 6971 ft 153 kts 161°
2026-05-08 06:00 -34.02429 150.01410 6976 ft 152 kts 161°
2026-05-08 06:00 -34.03371 150.01974 6976 ft 152 kts 160°
2026-05-08 06:01 -34.04331 150.02548 6977 ft 155 kts 161°
2026-05-08 06:01 -34.05294 150.03125 6974 ft 154 kts 161°
2026-05-08 06:01 -34.06239 150.03693 6962 ft 152 kts 160°
2026-05-08 06:01 -34.07166 150.04254 6970 ft 144 kts 161°
2026-05-08 06:02 -34.08056 150.04788 6958 ft 141 kts 162°
2026-05-08 06:02 -34.08917 150.05305 6959 ft 138 kts 162°
2026-05-08 06:02 -34.09790 150.05828 6961 ft 139 kts 161°
2026-05-08 06:02 -34.10657 150.06349 6961 ft 144 kts 161°
2026-05-08 06:03 -34.11558 150.06884 6974 ft 145 kts 161°
2026-05-08 06:03 -34.12470 150.07432 6963 ft 147 kts 161°
2026-05-08 06:03 -34.13379 150.07982 6960 ft 145 kts 161°
2026-05-08 06:03 -34.14284 150.08527 6965 ft 145 kts 161°
2026-05-08 06:04 -34.15190 150.09070 6963 ft 145 kts 160°
2026-05-08 06:04 -34.16032 150.09780 6961 ft 153 kts 146°
2026-05-08 06:04 -34.16709 150.10804 6961 ft 161 kts 130°
2026-05-08 06:04 -34.17126 150.12090 6961 ft 170 kts 113°
2026-05-08 06:05 -34.17200 150.13549 6955 ft 180 kts 94°
2026-05-08 06:05 -34.16913 150.15043 6989 ft 183 kts 83°
2026-05-08 06:05 -34.16589 150.16514 7051 ft 181 kts 85°
2026-05-08 06:05 -34.16277 150.17995 7056 ft 183 kts 84°
2026-05-08 06:06 -34.15954 150.19487 7051 ft 184 kts 84°
2026-05-08 06:06 -34.15630 150.20978 7054 ft 184 kts 84°
2026-05-08 06:06 -34.15305 150.22476 7051 ft 184 kts 84°
2026-05-08 06:06 -34.14981 150.23975 7050 ft 184 kts 84°
2026-05-08 06:07 -34.14655 150.25472 7049 ft 184 kts 84°
2026-05-08 06:07 -34.14330 150.26952 7051 ft 180 kts 84°
2026-05-08 06:07 -34.14017 150.28422 7053 ft 181 kts 84°
2026-05-08 06:07 -34.13697 150.29897 7048 ft 182 kts 84°
2026-05-08 06:08 -34.13377 150.31367 7040 ft 181 kts 84°
2026-05-08 06:08 -34.13058 150.32833 7042 ft 181 kts 84°
2026-05-08 06:08 -34.12738 150.34303 7040 ft 181 kts 84°
2026-05-08 06:08 -34.12418 150.35768 7039 ft 180 kts 84°
2026-05-08 06:09 -34.12099 150.37233 7038 ft 181 kts 84°
2026-05-08 06:09 -34.11781 150.38697 7041 ft 181 kts 84°
2026-05-08 06:09 -34.11459 150.40166 7037 ft 180 kts 81°
2026-05-08 06:09 -34.11142 150.41602 7041 ft 177 kts 84°
2026-05-08 06:10 -34.10832 150.43049 7039 ft 178 kts 84°
2026-05-08 06:10 -34.10515 150.44502 7039 ft 180 kts 83°
2026-05-08 06:10 -34.10194 150.45967 7036 ft 182 kts 83°
2026-05-08 06:10 -34.09872 150.47425 7034 ft 179 kts 83°
2026-05-08 06:11 -34.09555 150.48884 7035 ft 180 kts 84°
2026-05-08 06:11 -34.09240 150.50324 7038 ft 180 kts 83°
2026-05-08 06:11 -34.08919 150.51784 7035 ft 180 kts 83°
2026-05-08 06:11 -34.08604 150.53237 7032 ft 179 kts 84°
2026-05-08 06:12 -34.08291 150.54690 7035 ft 180 kts 83°
2026-05-08 06:12 -34.07975 150.56155 7030 ft 181 kts 83°
2026-05-08 06:12 -34.07659 150.57620 7035 ft 180 kts 83°
2026-05-08 06:12 -34.07342 150.59086 7030 ft 181 kts 83°
2026-05-08 06:13 -34.07024 150.60550 7032 ft 181 kts 83°
2026-05-08 06:13 -34.06707 150.62014 7031 ft 180 kts 83°
2026-05-08 06:13 -34.06391 150.63480 7030 ft 181 kts 83°
2026-05-08 06:13 -34.06073 150.64945 7029 ft 181 kts 83°
2026-05-08 06:14 -34.05755 150.66409 7028 ft 181 kts 83°
2026-05-08 06:14 -34.05437 150.67877 7029 ft 181 kts 83°
2026-05-08 06:14 -34.05118 150.69341 7031 ft 181 kts 83°
2026-05-08 06:14 -34.04799 150.70805 7028 ft 180 kts 83°
2026-05-08 06:15 -34.04482 150.72268 7033 ft 180 kts 83°
2026-05-08 06:15 -34.04164 150.73733 7028 ft 181 kts 83°
2026-05-08 06:15 -34.03742 150.75172 7026 ft 187 kts 67°
2026-05-08 06:15 -34.03027 150.76496 7023 ft 189 kts 63°
2026-05-08 06:16 -34.02297 150.77813 7022 ft 189 kts 63°
2026-05-08 06:16 -34.01566 150.79128 7024 ft 189 kts 62°
2026-05-08 06:16 -34.00838 150.80448 7020 ft 189 kts 63°
2026-05-08 06:16 -34.00108 150.81770 7019 ft 190 kts 63°
2026-05-08 06:17 -33.98637 150.84434 7016 ft 191 kts 63°
2026-05-08 06:17 -33.97904 150.85770 7014 ft 192 kts 63°
2026-05-08 06:17 -33.97172 150.87108 7013 ft 191 kts 63°
2026-05-08 06:18 -33.96437 150.88438 7013 ft 190 kts 62°
2026-05-08 06:18 -33.95708 150.89769 7011 ft 190 kts 63°
2026-05-08 06:18 -33.94979 150.91101 7011 ft 191 kts 63°
2026-05-08 06:18 -33.94244 150.92434 7009 ft 191 kts 63°
2026-05-08 06:19 -33.93511 150.93764 7009 ft 191 kts 62°
2026-05-08 06:19 -33.92783 150.95097 7005 ft 191 kts 63°
2026-05-08 06:19 -33.92051 150.96430 7007 ft 191 kts 62°
2026-05-08 06:19 -33.91321 150.97764 7007 ft 191 kts 63°
2026-05-08 06:20 -33.90593 150.99104 7004 ft 191 kts 63°
2026-05-08 06:20 -33.89862 151.00439 7002 ft 191 kts 63°
2026-05-08 06:20 -33.89135 151.01769 7002 ft 190 kts 63°
2026-05-08 06:20 -33.88407 151.03103 7000 ft 191 kts 63°
2026-05-08 06:21 -33.87681 151.04439 7003 ft 191 kts 63°
2026-05-08 06:21 -33.86955 151.05773 7002 ft 191 kts 63°
2026-05-08 06:21 -33.86224 151.07106 7002 ft 191 kts 63°
2026-05-08 06:21 -33.85742 151.07988 7001 ft 191 kts 63°
2026-05-08 06:22 -33.85048 151.09344 7001 ft 189 kts 70°
2026-05-08 06:22 -33.84502 151.10767 7003 ft 187 kts 72°
2026-05-08 06:22 -33.83964 151.12194 7003 ft 187 kts 72°
2026-05-08 06:22 -33.83250 151.14112 7003 ft 189 kts 73°
2026-05-08 06:23 -33.82893 151.15068 7005 ft 190 kts 73°
2026-05-08 06:23 -33.82174 151.16986 7006 ft 190 kts 72°
2026-05-08 06:23 -33.81638 151.18433 7002 ft 190 kts 72°
2026-05-08 06:23 -33.81104 151.19881 7003 ft 189 kts 73°
2026-05-08 06:24 -33.80563 151.21327 7005 ft 190 kts 73°
2026-05-08 06:24 -33.80021 151.22774 7005 ft 190 kts 72°
2026-05-08 06:24 -33.79483 151.24229 7005 ft 190 kts 72°
2026-05-08 06:24 -33.79120 151.25211 7003 ft 190 kts 72°
2026-05-08 06:25 -33.78585 151.26658 7006 ft 190 kts 73°
2026-05-08 06:25 -33.78046 151.28106 7006 ft 190 kts 72°
2026-05-08 06:25 -33.77511 151.29556 7003 ft 190 kts 72°
2026-05-08 06:25 -33.77170 151.31035 6985 ft 178 kts 100°
2026-05-08 06:26 -33.77534 151.32417 6760 ft 172 kts 129°
2026-05-08 06:26 -33.78196 151.33612 6527 ft 170 kts 137°
2026-05-08 06:26 -33.78889 151.34768 6275 ft 176 kts 125°
2026-05-08 06:26 -33.79401 151.36118 6023 ft 178 kts 123°
2026-05-08 06:27 -33.79907 151.37478 5775 ft 178 kts 123°
2026-05-08 06:27 -33.80414 151.38842 5522 ft 179 kts 123°
2026-05-08 06:27 -33.80913 151.40188 5273 ft 179 kts 123°
2026-05-08 06:27 -33.81446 151.41535 5025 ft 179 kts 122°
2026-05-08 06:28 -33.81953 151.42907 4776 ft 180 kts 123°
2026-05-08 06:28 -33.82473 151.44282 4515 ft 179 kts 126°
2026-05-08 06:28 -33.83331 151.45222 4258 ft 163 kts 167°
2026-05-08 06:28 -33.84408 151.45160 4028 ft 156 kts 200°
2026-05-08 06:29 -33.85394 151.44706 4004 ft 147 kts 202°
2026-05-08 06:29 -33.86331 151.44268 4005 ft 143 kts 203°
2026-05-08 06:29 -33.87231 151.43826 3997 ft 134 kts 210°
2026-05-08 06:29 -33.87814 151.43006 3991 ft 127 kts 231°
2026-05-08 06:30 -33.88223 151.42076 3935 ft 129 kts 244°
2026-05-08 06:30 -33.88527 151.41036 3770 ft 134 kts 245°
2026-05-08 06:30 -33.88809 151.39952 3589 ft 138 kts 247°
2026-05-08 06:30 -33.89086 151.38845 3407 ft 138 kts 247°
2026-05-08 06:31 -33.89347 151.37737 3223 ft 137 kts 248°
2026-05-08 06:31 -33.89606 151.36636 3035 ft 136 kts 249°
2026-05-08 06:31 -33.89863 151.35541 2852 ft 136 kts 250°
2026-05-08 06:31 -33.90122 151.34441 2670 ft 137 kts 251°
2026-05-08 06:32 -33.90380 151.33342 2482 ft 136 kts 252°
2026-05-08 06:32 -33.90636 151.32250 2297 ft 136 kts 252°
2026-05-08 06:32 -33.90889 151.31175 2116 ft 135 kts 252°
2026-05-08 06:32 -33.91145 151.30084 1935 ft 131 kts 253°
2026-05-08 06:33 -33.91380 151.29079 1759 ft 122 kts 253°
2026-05-08 06:33 -33.91602 151.28159 1603 ft 106 kts 252°
2026-05-08 06:33 -33.91789 151.27363 1469 ft 93 kts 251°
2026-05-08 06:33 -33.91959 151.26641 1352 ft 87 kts 253°
2026-05-08 06:34 -33.92123 151.25950 1232 ft 85 kts 253°
2026-05-08 06:34 -33.92279 151.25270 1119 ft 85 kts 253°
2026-05-08 06:34 -33.92444 151.24579 1015 ft 88 kts 254°
2026-05-08 06:34 -33.92618 151.23845 886 ft 93 kts 252°
2026-05-08 06:35 -33.92791 151.23090 761 ft 95 kts 252°
2026-05-08 06:35 -33.92973 151.22323 636 ft 95 kts 255°
2026-05-08 06:35 -33.93134 151.21645 521 ft 73 kts 255°
2026-05-08 06:35 -33.93265 151.21095 427 ft 67 kts 256°
2026-05-08 06:36 -33.93390 151.20556 343 ft 66 kts 254°
2026-05-08 06:36 -33.93515 151.20034 256 ft 66 kts 254°
2026-05-08 06:36 -33.93638 151.19512 169 ft 66 kts 256°
2026-05-08 06:36 -33.93755 151.19001 97 ft 63 kts 254°
2026-05-08 06:37 -33.93870 151.18522 26 ft 54 kts 255°
2026-05-08 06:37 -33.93950 151.18161 21 ft 30 kts 253°
2026-05-08 06:37 -33.93999 151.17953 17 ft 29 kts 252°
2026-05-08 06:37 -33.94013 151.17820 17 ft 14 kts 309°
2026-05-08 06:38 -33.93909 151.17781 16 ft 9 kts 351°
2026-05-08 06:38 -33.93903 151.17780 15 ft 0 kts 349°
2026-05-08 06:38 -33.93897 151.17778 15 ft 0 kts 351°
2026-05-08 06:38 -33.93840 151.17792 16 ft 15 kts 59°
2026-05-08 06:39 -33.93806 151.17927 22 ft 17 kts 73°
2026-05-08 06:39 -33.93773 151.18066 25 ft 19 kts 75°
2026-05-08 06:39 -33.93734 151.18237 25 ft 23 kts 75°
2026-05-08 06:39 -33.93694 151.18379 27 ft 11 kts 37°
2026-05-08 06:40 -33.93636 151.18419 27 ft 11 kts 58°
2026-05-08 06:40 -33.93599 151.18461 26 ft 2 kts 36°
2026-05-08 06:40 -33.93599 151.18462 26 ft 0 kts 36°